Palm Springs, CA

7:44 AM PDT on March 26, 2017 (GMT -0700)
Palm Springs International

Weather History for KPSP - September, 2012

Change the Weather History Date:

Saturday, September 8, 2012

  Actual Average Record
Temperature  
Mean Temperature 96 °F 89 °F  
Max Temperature 109 °F 103 °F 120 °F (1932)
Min Temperature 82 °F 75 °F 54 °F (1930)
Degree Days  
Heating Degree Days 0 0  
Month to date heating degree days 0 0  
Since 1 July heating degree days 0 0  
Cooling Degree Days 31 24  
Month to date cooling degree days 224 197  
Year to date cooling degree days 3642 3281  
Growing Degree Days 46 (Base 50)    
Moisture  
Dew Point 61 °F    
Average Humidity 35    
Maximum Humidity 48    
Minimum Humidity 21    
Precipitation  
Precipitation 0.00 in 0.02 in 0.64 in (1945)
Month to date precipitation T 0.14  
Year to date precipitation 1.81 3.67  
Since 1 July precipitation 1.02  
Snow  
Snow 0.00 in - - ()
Month to date snowfall 0.0  
Year to date snowfall 0.0  
Snow Depth 0.00 in    
Sea Level Pressure  
Sea Level Pressure 29.80 in    
Wind  
Wind Speed 7 mph (ENE)    
Max Wind Speed 16 mph    
Max Gust Speed 20 mph    
Visibility 10 miles    
Events      
T = Trace of Precipitation, MM = Missing Value Source: NWS Daily Summary

Daily Weather History Graph

Daily Weather History Graph

Search for Another Location

Airport or City:

Trip Planner

Search our weather history database for the weather conditions in past years. The results will help you decide how hot, cold, wet, or windy it might be!

Date:

Astronomy

Sep. 08, 2012 Rise Set
Actual Time 6:24 AM PDT 7:01 PM PDT
Civil Twilight 5:59 AM PDT 7:26 PM PDT
Nautical Twilight 5:30 AM PDT 7:56 PM PDT
Astronomical Twilight 4:59 AM PDT 8:26 PM PDT
Moon No Moon Rise 1:49 PM PDT (9/8)
Length of Visible Light 13h 26m
Length of Day
12h 36m
Waning Gibbous, 48% of the Moon is Illuminated
Sep 8
Waning Gibbous
Sep 15
New
Sep 22
First Quarter
Sep 29
Full
Oct 8
Last Quarter

Hourly Weather History & Observations

Time (PDT) Temp. Heat Index Dew Point Humidity Pressure Visibility Wind Dir Wind Speed Gust Speed Precip Events Conditions
12:53 AM 89.1 °F 88.2 °F 59.0 °F 36% 29.84 in 10.0 mi NW 9.2 mph - N/A   Clear
1:53 AM 88.0 °F 87.1 °F 59.0 °F 37% 29.83 in 10.0 mi NW 12.7 mph - N/A   Clear
2:53 AM 88.0 °F 87.1 °F 59.0 °F 37% 29.82 in 10.0 mi NW 9.2 mph - N/A   Clear
3:53 AM 86.0 °F 85.7 °F 60.1 °F 41% 29.82 in 10.0 mi West 3.5 mph - N/A   Clear
4:53 AM 84.9 °F 85.4 °F 62.1 °F 46% 29.82 in 10.0 mi Calm Calm - N/A   Clear
5:53 AM 86.0 °F 85.4 °F 59.0 °F 40% 29.82 in 10.0 mi WNW 5.8 mph - N/A   Clear
6:53 AM 84.0 °F 84.9 °F 63.0 °F 49% 29.83 in 10.0 mi Calm Calm - N/A   Scattered Clouds
7:53 AM 86.0 °F 87.6 °F 64.9 °F 49% 29.85 in 10.0 mi Calm Calm - N/A   Scattered Clouds
8:53 AM 90.0 °F 90.0 °F 61.0 °F 38% 29.85 in 10.0 mi South 4.6 mph - N/A   Clear
9:53 AM 93.9 °F 93.6 °F 60.1 °F 32% 29.86 in 10.0 mi SE 5.8 mph - N/A   Scattered Clouds
10:53 AM 98.1 °F 97.2 °F 57.9 °F 26% 29.85 in 10.0 mi SSE 8.1 mph - N/A   Scattered Clouds
11:53 AM 100.0 °F 100.7 °F 60.1 °F 27% 29.83 in 10.0 mi ESE 6.9 mph - N/A   Scattered Clouds
12:53 PM 102.9 °F 104.8 °F 62.1 °F 26% 29.81 in 10.0 mi ESE 8.1 mph - N/A   Scattered Clouds
1:53 PM 107.1 °F 108.1 °F 59.0 °F 21% 29.78 in 10.0 mi ESE 9.2 mph - N/A   Scattered Clouds
2:53 PM 108.0 °F 109.5 °F 60.1 °F 21% 29.74 in 10.0 mi East 9.2 mph - N/A   Scattered Clouds
3:53 PM 106.0 °F 107.1 °F 60.1 °F 22% 29.73 in 10.0 mi East 11.5 mph - N/A   Clear
4:53 PM 106.0 °F 107.8 °F 61.0 °F 23% 29.73 in 10.0 mi ESE 15.0 mph - N/A   Clear
5:53 PM 104.0 °F 106.0 °F 62.1 °F 25% 29.73 in 10.0 mi ESE 15.0 mph - N/A   Clear
6:53 PM 100.0 °F 103.6 °F 64.9 °F 32% 29.74 in 10.0 mi ESE 13.8 mph - N/A   Clear
7:53 PM 98.6 °F 102.8 °F 66.2 °F 35% 29.78 in 10.0 mi East 6.9 mph - N/A   Clear
8:53 PM 98.1 °F 101.2 °F 64.9 °F 34% 29.80 in 10.0 mi NNW 6.9 mph - N/A   Clear
9:53 PM 96.1 °F 96.0 °F 60.1 °F 30% 29.81 in 10.0 mi NW 11.5 mph - N/A   Clear
10:53 PM 93.0 °F 93.0 °F 61.0 °F 34% 29.81 in 10.0 mi WNW 5.8 mph - N/A   Clear
11:53 PM 91.9 °F 91.8 °F 61.0 °F 35% 29.81 in 10.0 mi NNW 8.1 mph - N/A   Clear